This demonstration page uses our WeatherBlox Daily Observations layout. Learn more.

Hourly Observations for February 26, 2018

Temp ( °F °C ) Dew Point ( °F °C ) Humidity (%) Winds ( mph kmh ) Pressure ( in mb ) Visibility ( mi km ) Precip ( " mm )
12:15 am 00:15 Clear 29 -1.7 15 -9.3 57 57 SW 5 7 30.18 1022 10 16.0934 0 0
12:35 am 00:35 Clear 28 -2.2 15 -9.2 59 59 SW 6 9 30.18 1022 10 16.0934 0 0
12:55 am 00:55 Clear 27 -2.7 15 -9.3 61 61 Calm 30.18 1022 10 16.0934 0 0
1:15 am 01:15 Clear 28 -2.1 15 -9.5 57 57 Calm 30.18 1022 10 16.0934 0 0
1:35 am 01:35 Clear 27 -2.8 15 -9.5 60 60 Calm 30.18 1022 10 16.0934 0 0
1:55 am 01:55 Clear 28 -2.3 16 -8.8 61 61 WSW 5 7 30.18 1022 10 16.0934 0 0
2:15 am 02:15 Clear 29 -1.9 16 -9 59 59 SW 5 7 30.18 1022 10 16.0934 0 0
2:35 am 02:35 Clear 28 -2 16 -9.1 59 59 SW 5 7 30.18 1022 10 16.0934 0 0
2:55 am 02:55 Clear 26 -3.4 14 -10 61 61 S 7 11 30.21 1023 10 16.0934 0 0
3:15 am 03:15 Clear 22 -5.5 14 -9.9 71 71 S 6 9 30.18 1022 10 16.0934 0 0
3:40 am 03:40 Clear 26 -3.5 15 -9.6 63 63 SSW 7 11 30.18 1022 10 16.0934 0 0
3:55 am 03:55 Clear 24 -4.3 14 -10.1 64 64 SSW 7 11 30.18 1022 10 16.0934 0 0
4:15 am 04:15 Clear 25 -3.9 14 -10 63 63 SSW 6 9 30.18 1022 10 16.0934 0 0
4:35 am 04:35 Clear 24 -4.7 14 -10 67 67 SSW 6 9 30.18 1022 10 16.0934 0 0
4:55 am 04:55 Clear 25 -4.1 14 -10.2 63 63 SSW 6 9 30.18 1022 10 16.0934 0 0
5:15 am 05:15 Clear 22 -5.6 13 -10.6 68 68 SSW 6 9 30.18 1022 10 16.0934 0 0
5:35 am 05:35 Clear 24 -4.3 13 -10.5 62 62 SW 7 11 30.18 1022 10 16.0934 0 0
5:55 am 05:55 Clear 26 -3.5 13 -10.6 58 58 SSW 7 11 30.18 1022 10 16.0934 0 0
6:15 am 06:15 Clear 26 -3.4 13 -10.6 58 58 SSW 8 13 30.18 1022 10 16.0934 0 0
6:35 am 06:35 Clear 24 -4.3 13 -10.8 61 61 S 9 15 30.18 1022 10 16.0934 0 0
6:55 am 06:55 Clear 24 -4.6 13 -10.6 63 63 SSW 9 15 30.18 1022 10 16.0934 0 0
7:15 am 07:15 Sunny 24 -4.5 12 -10.9 61 61 SSW 7 11 30.21 1023 10 16.0934 0 0
7:35 am 07:35 Sunny 25 -4.1 12 -11 59 59 SSW 8 13 30.18 1022 10 16.0934 0 0
7:55 am 07:55 Sunny 26 -3.2 12 -11.1 55 55 SSW 10 17 30.18 1022 10 16.0934 0 0
8:15 am 08:15 Sunny 30 -1.3 14 -9.9 52 52 SW 12 19 30.18 1022 10 16.0934 0 0
8:35 am 08:35 Sunny 32 0.1 15 -9.6 48 48 SW 15 24 30.18 1022 10 16.0934 0 0
8:55 am 08:55 Sunny 34 0.9 15 -9.7 45 45 SW 13 20 30.15 1021 10 16.0934 0 0
9:15 am 09:15 Sunny 36 2.1 15 -9.5 42 42 SW 13 20 30.15 1021 10 16.0934 0 0
9:35 am 09:35 Sunny 38 3.5 16 -9 40 40 SSW 15 24 30.12 1020 10 16.0934 0 0
9:55 am 09:55 Sunny 40 4.2 16 -9 38 38 SSW 17 28 30.09 1019 10 16.0934 0 0
10:15 am 10:15 Sunny 40 4.5 16 -9 37 37 SSW 18 30 30.09 1019 10 16.0934 0 0
10:35 am 10:35 Sunny 43 5.9 17 -8.2 36 36 SW 20 31 30.09 1019 10 16.0934 0 0
10:55 am 10:55 Sunny 45 7.4 19 -7.5 34 34 SSW 16 26 30.06 1018 10 16.0934 0 0
11:15 am 11:15 Sunny 49 9.3 19 -7.5 30 30 SSW 22 35 30.06 1018 10 16.0934 0 0
11:35 am 11:35 Sunny 50 9.9 18 -7.8 28 28 SSW 25 41 30.03 1017 10 16.0934 0 0
11:55 am 11:55 Sunny 51 10.4 18 -7.9 27 27 SSW 26 43 30.03 1017 10 16.0934 0 0
12:15 pm 12:15 Sunny 52 11.1 18 -7.7 26 26 SSW 24 39 30.03 1017 10 16.0934 0 0
12:35 pm 12:35 Sunny 54 12.1 18 -7.7 25 25 SW 21 33 30 1016 10 16.0934 0 0
12:55 pm 12:55 Sunny 56 13.3 18 -7.8 22 22 SSW 22 35 29.97 1015 10 16.0934 0 0
1:15 pm 13:15 Sunny 57 13.8 18 -7.9 22 22 SW 20 31 29.97 1015 10 16.0934 0 0
1:35 pm 13:35 Sunny 58 14.5 18 -7.9 21 21 SW 16 26 29.94 1014 10 16.0934 0 0
1:55 pm 13:55 Sunny 59 14.8 17 -8.1 20 20 SSW 16 26 29.94 1014 10 16.0934 0 0
2:15 pm 14:15 Sunny 59 15 18 -8 20 20 SW 17 28 29.94 1014 10 16.0934 0 0
2:35 pm 14:35 Sunny 60 15.5 17 -8.2 19 19 SW 17 28 29.88 1012 10 16.0934 0 0
2:55 pm 14:55 Sunny 60 15.5 18 -7.9 19 19 SW 15 24 29.88 1012 10 16.0934 0 0
3:15 pm 15:15 Sunny 61 16 17 -8.3 18 18 SW 15 24 29.88 1012 10 16.0934 0 0
3:35 pm 15:35 Sunny 61 15.9 17 -8.2 18 18 SSW 18 30 29.88 1012 10 16.0934 0 0
3:55 pm 15:55 Sunny 61 15.9 18 -7.9 19 19 SSW 13 20 29.88 1012 10 16.0934 0 0
4:15 pm 16:15 Sunny 61 15.9 18 -8 19 19 SSW 14 22 29.88 1012 10 16.0934 0 0
4:35 pm 16:35 Sunny 60 15.6 18 -8 19 19 S 14 22 29.85 1011 10 16.0934 0 0
4:55 pm 16:55 Sunny 60 15.4 18 -7.7 20 20 S 18 30 29.85 1011 10 16.0934 0 0
5:15 pm 17:15 Sunny 59 14.8 18 -7.6 21 21 S 17 28 29.88 1012 10 16.0934 0 0
5:35 pm 17:35 Sunny 57 13.9 18 -7.7 22 22 S 10 17 29.88 1012 10 16.0934 0 0
5:55 pm 17:55 Sunny 55 12.8 18 -7.9 23 23 S 10 17 29.88 1012 10 16.0934 0 0
6:15 pm 18:15 Sunny 52 11 18 -7.6 27 27 S 9 15 29.91 1013 10 16.0934 0 0
6:35 pm 18:35 Clear 47 8.3 17 -8.2 30 30 SSE 9 15 29.91 1013 10 16.0934 0 0
6:55 pm 18:55 Clear 41 5 16 -9.1 36 36 SE 8 13 29.97 1015 10 16.0934 0 0
7:15 pm 19:15 Clear 39 4 15 -9.4 37 37 SE 9 15 29.97 1015 10 16.0934 0 0
7:35 pm 19:35 Clear 39 4 16 -9 39 39 SE 10 17 29.97 1015 10 16.0934 0 0
7:55 pm 19:55 Clear 37 2.9 16 -8.7 43 43 SE 12 19 29.97 1015 10 16.0934 0 0
8:15 pm 20:15 Clear 40 4.5 17 -8.4 39 39 SE 12 19 29.97 1015 10 16.0934 0 0
8:35 pm 20:35 Clear 40 4.5 17 -8.4 39 39 SE 10 17 29.97 1015 10 16.0934 0 0
8:55 pm 20:55 Clear 39 3.7 17 -8.1 42 42 SE 9 15 29.97 1015 10 16.0934 0 0
9:15 pm 21:15 Clear 37 2.5 18 -7.8 47 47 SE 13 20 29.97 1015 10 16.0934 0 0
9:35 pm 21:35 Clear 40 4.6 18 -7.6 41 41 SE 12 19 29.97 1015 10 16.0934 0 0
9:55 pm 21:55 Clear 40 4.5 18 -7.6 41 41 SE 12 19 29.97 1015 10 16.0934 0 0
10:15 pm 22:15 Clear 37 3 19 -7.5 46 46 SE 10 17 29.97 1015 10 16.0934 0 0
10:35 pm 22:35 Clear 37 2.5 19 -7.2 49 49 SE 12 19 29.94 1014 10 16.0934 0 0
10:55 pm 22:55 Clear 37 2.5 19 -7 50 50 SE 12 19 29.94 1014 10 16.0934 0 0
11:15 pm 23:15 Clear 36 2.1 19 -7 51 51 SSE 10 17 29.94 1014 10 16.0934 0 0
11:35 pm 23:35 Clear 35 1.8 19 -7 52 52 SSE 10 17 29.94 1014 10 16.0934 0 0
11:55 pm 23:55 Clear 35 1.5 19 -7 54 54 SSE 8 13 29.97 1015 10 16.0934 0 0

Powered by AerisWeather